カタログに戻る

DELTA 1 DEB

運用中PO
NORAD 21371·DEBRIS·🇺🇸 United States

打ち上げ Jun 12, 1975 から Vandenberg Space Force Base

Loading…

次のパス (今後24時間)

TLE

最新Source: Space-Track

元期: Sep 14, 2026, 02:26 UTC

1 21371U 75052CR  26257.10198405  .00000011  00000-0  13175-3 0  9995
2 21371  99.7661 319.3480 0151561 264.9405 122.6358 13.14313129693666

AllMySatでDELTA 1 DEBをリアルタイム追跡

Download on the App Store